Location: Balaclava NSW 2575, Australia
(34.4510°S, 150.4953°E)
Time: 07:57:42
(UTC+10:00)

ISS - Pass Details

Date: 19 May 2021
Orbit: 417 x 422 km, 51.6° (Epoch: 17 June)

Event Time Altitude Azimuth Distance (km) Brightness Sun altitude
Rises 05:55:44 0° 343° (NNW) 2,364 0.1 -10.8°
Reaches altitude 10° 05:58:07 10° 358° (N) 1,507 -0.7 -10.3°
Maximum altitude 06:00:48 22° 51° (NE) 983 -0.9 -9.8°
Drops below altitude 10° 06:03:31 10° 104° (ESE) 1,522 0.1 -9.2°
Sets 06:05:56 0° 119° (ESE) 2,394 0.8 -8.8°
